Weather History for Pauls Valley, OK

Change the Weather History Date:

Saturday, November 17, 2012

  Actual Average (KADH) Record (KADH)
Temperature  
Mean Temperature 46 °F -  
Max Temperature 60 °F 63 °F 85 °F (1938)
Min Temperature 33 °F 38 °F 11 °F (1959)
Degree Days  
Heating Degree Days 18    
Moisture  
Dew Point 31 °F    
Average Humidity 60    
Maximum Humidity 93    
Minimum Humidity 31    
Precipitation  
Precipitation 0.00 in - - ()
Sea Level Pressure  
Sea Level Pressure 30.33 in    
Wind  
Wind Speed 4 mph (SSE)    
Max Wind Speed 13 mph    
Max Gust Speed -    
Visibility 10 miles    
Events      
Averages and records for this station are not official NWS values.
T = Trace of Precipitation, MM = Missing Value Source: NWS Daily Summary

Daily Weather History Graph

Daily Weather History Graph

Search for Another Location

Airport:

Trip Planner

Search our weather history database for the weather conditions in past years. The results will help you decide how hot, cold, wet, or windy it might be!

Date:

Astronomy

Nov. 17, 2012 Rise Set
Actual Time 7:05 AM CST 5:22 PM CST
Civil Twilight 6:38 AM CST 5:49 PM CST
Nautical Twilight 6:07 AM CST 6:19 PM CST
Astronomical Twilight 5:37 AM CST 6:49 PM CST
Moon 10:50 AM CST (11/17) 9:33 PM CST (11/17)
Length of Visible Light 11h 11m
Length of Day
10h 17m
Waxing Crescent, 20% of the Moon is Illuminated
Nov 17
Waxing Crescent
Nov 20
First Quarter
Nov 28
Full
Dec 6
Last Quarter
Dec 13
New

Hourly Weather History & Observations

Time (CST) Temp. Windchill Dew Point Humidity Pressure Visibility Wind Dir Wind Speed Gust Speed Precip Events Conditions
12:15 AM 41.0 °F 39.0 °F 32.0 °F 70% 30.35 in 10.0 mi SE 3.5 mph - N/A   Unknown
12:35 AM 41.0 °F 39.0 °F 32.0 °F 70% 30.35 in 10.0 mi SE 3.5 mph - N/A   Unknown
12:55 AM 41.0 °F - 32.0 °F 70% 30.35 in 10.0 mi Calm Calm - N/A   Unknown
1:15 AM 37.4 °F - 32.0 °F 81% 30.35 in 10.0 mi Calm Calm - N/A   Unknown
1:35 AM 39.2 °F - 32.0 °F 75% 30.35 in 10.0 mi Calm Calm - N/A   Unknown
1:55 AM 41.0 °F - 32.0 °F 70% 30.36 in 10.0 mi Calm Calm - N/A   Unknown
2:15 AM 39.2 °F - 32.0 °F 75% 30.36 in 10.0 mi Calm Calm - N/A   Unknown
2:35 AM 37.4 °F - 32.0 °F 81% 30.36 in 10.0 mi Calm Calm - N/A   Unknown
2:55 AM 37.4 °F - 32.0 °F 81% 30.35 in 4.0 mi Calm Calm - N/A   Haze
3:15 AM 37.4 °F 34.9 °F 32.0 °F 81% 30.35 in 10.0 mi SE 3.5 mph - N/A   Unknown
3:35 AM 35.6 °F - 32.0 °F 87% 30.35 in 10.0 mi Calm Calm - N/A   Unknown
3:55 AM 35.6 °F - 32.0 °F 87% 30.35 in 10.0 mi Calm Calm - N/A   Unknown
4:15 AM 35.6 °F 32.8 °F 32.0 °F 87% 30.36 in 10.0 mi SE 3.5 mph - N/A   Unknown
4:35 AM 35.6 °F 31.7 °F 32.0 °F 87% 30.36 in 10.0 mi SSE 4.6 mph - N/A   Unknown
4:55 AM 35.6 °F 31.7 °F 32.0 °F 87% 30.36 in 10.0 mi SE 4.6 mph - N/A   Unknown
5:15 AM 35.6 °F 32.8 °F 32.0 °F 87% 30.36 in 10.0 mi SSE 3.5 mph - N/A   Unknown
5:35 AM 35.6 °F 32.8 °F 32.0 °F 87% 30.36 in 10.0 mi SE 3.5 mph - N/A   Unknown
5:55 AM 35.6 °F 32.8 °F 32.0 °F 87% 30.36 in 10.0 mi SSE 3.5 mph - N/A   Unknown
6:15 AM 33.8 °F 30.8 °F 32.0 °F 93% 30.36 in 10.0 mi SE 3.5 mph - N/A   Unknown
6:35 AM 33.8 °F - 32.0 °F 93% 30.37 in 10.0 mi Calm Calm - N/A   Unknown
6:55 AM 33.8 °F 30.8 °F 32.0 °F 93% 30.37 in 10.0 mi South 3.5 mph - N/A   Unknown
7:15 AM 33.8 °F 30.8 °F 32.0 °F 93% 30.37 in 10.0 mi South 3.5 mph - N/A   Unknown
7:35 AM 33.8 °F - 32.0 °F 93% 30.38 in 10.0 mi Calm Calm - N/A   Unknown
7:55 AM 35.6 °F - 32.0 °F 87% 30.39 in 10.0 mi Calm Calm - N/A   Unknown
8:15 AM 37.4 °F - 33.8 °F 87% 30.39 in 10.0 mi Calm Calm - N/A   Unknown
8:35 AM 41.0 °F 37.1 °F 33.8 °F 76% 30.40 in 10.0 mi SSE 5.8 mph - N/A   Unknown
8:55 AM 42.8 °F 39.3 °F 33.8 °F 70% 30.40 in 10.0 mi SSE 5.8 mph - N/A   Unknown
9:15 AM 44.6 °F 40.2 °F 32.0 °F 61% 30.41 in 10.0 mi SSE 8.1 mph - N/A   Unknown
9:35 AM 44.6 °F 40.2 °F 32.0 °F 61% 30.41 in 10.0 mi SSE 8.1 mph - N/A   Unknown
9:55 AM 48.2 °F - 32.0 °F 54% 30.41 in 10.0 mi SSE 9.2 mph - N/A   Unknown
10:15 AM 50.0 °F - 32.0 °F 50% 30.40 in 10.0 mi SE 8.1 mph - N/A   Unknown
10:35 AM 51.8 °F - 32.0 °F 47% 30.40 in 10.0 mi SSE 10.4 mph - N/A   Unknown
11:55 AM 55.4 °F - 30.2 °F 38% 30.37 in 10.0 mi SSE 10.4 mph - N/A   Unknown
12:15 PM 55.4 °F - 32.0 °F 41% 30.36 in 10.0 mi SSE 6.9 mph - N/A   Unknown
12:35 PM 59.0 °F - 32.0 °F 36% 30.34 in 10.0 mi South 8.1 mph - N/A   Unknown
12:55 PM 59.0 °F - 32.0 °F 36% 30.33 in 10.0 mi SSE 10.4 mph - N/A   Unknown
1:15 PM 59.0 °F - 32.0 °F 36% 30.33 in 10.0 mi SE 9.2 mph - N/A   Unknown
1:35 PM 59.0 °F - 30.2 °F 34% 30.33 in 10.0 mi SSE 6.9 mph - N/A   Unknown
1:55 PM 60.8 °F - 32.0 °F 34% 30.32 in 10.0 mi SSE 11.5 mph - N/A   Unknown
2:15 PM 60.8 °F - 32.0 °F 34% 30.31 in 10.0 mi SE 9.2 mph - N/A   Unknown
2:35 PM 60.8 °F - 30.2 °F 31% 30.31 in 10.0 mi South 8.1 mph - N/A   Unknown
2:55 PM 60.8 °F - 30.2 °F 31% 30.30 in 10.0 mi SSE 12.7 mph - N/A   Unknown
3:15 PM 60.8 °F - 30.2 °F 31% 30.30 in 10.0 mi SE 8.1 mph - N/A   Unknown
3:35 PM 60.8 °F - 30.2 °F 31% 30.29 in 10.0 mi SE 8.1 mph - N/A   Unknown
3:55 PM 60.8 °F - 30.2 °F 31% 30.28 in 10.0 mi SSE 10.4 mph - N/A   Unknown
4:15 PM 59.0 °F - 30.2 °F 34% 30.28 in 10.0 mi SSE 9.2 mph - N/A   Unknown
4:35 PM 59.0 °F - 30.2 °F 34% 30.28 in 10.0 mi SSE 9.2 mph - N/A   Unknown
4:55 PM 57.2 °F - 30.2 °F 36% 30.28 in 10.0 mi SE 6.9 mph - N/A   Unknown
5:15 PM 55.4 °F - 28.4 °F 36% 30.28 in 10.0 mi SSE 6.9 mph - N/A   Unknown
5:35 PM 53.6 °F - 28.4 °F 38% 30.28 in 10.0 mi SSE 6.9 mph - N/A   Unknown
5:55 PM 53.6 °F - 28.4 °F 38% 30.28 in 10.0 mi SE 5.8 mph - N/A   Unknown
6:15 PM 51.8 °F - 28.4 °F 41% 30.28 in 10.0 mi SE 4.6 mph - N/A   Unknown
6:35 PM 51.8 °F - 28.4 °F 41% 30.28 in 10.0 mi ESE 4.6 mph - N/A   Unknown
6:55 PM 50.0 °F - 30.2 °F 47% 30.28 in 10.0 mi ESE 4.6 mph - N/A   Unknown
7:15 PM 50.0 °F - 30.2 °F 47% 30.28 in 10.0 mi SE 4.6 mph - N/A   Unknown
7:35 PM 50.0 °F - 30.2 °F 47% 30.28 in 10.0 mi SE 5.8 mph - N/A   Unknown
7:55 PM 48.2 °F - 30.2 °F 50% 30.28 in 10.0 mi SSE 4.6 mph - N/A   Unknown
8:15 PM 46.4 °F 45.2 °F 30.2 °F 53% 30.27 in 10.0 mi SSE 3.5 mph - N/A   Unknown
8:35 PM 46.4 °F 45.2 °F 30.2 °F 53% 30.28 in 10.0 mi SSE 3.5 mph - N/A   Unknown
8:55 PM 44.6 °F 43.1 °F 30.2 °F 57% 30.28 in 10.0 mi South 3.5 mph - N/A   Unknown
9:15 PM 42.8 °F 40.1 °F 30.2 °F 61% 30.28 in 10.0 mi SSE 4.6 mph - N/A   Unknown
9:35 PM 44.6 °F 43.1 °F 30.2 °F 57% 30.28 in 10.0 mi SSE 3.5 mph - N/A   Unknown
9:55 PM 44.6 °F 42.2 °F 30.2 °F 57% 30.28 in 10.0 mi South 4.6 mph - N/A   Unknown
10:15 PM 44.6 °F 43.1 °F 30.2 °F 57% 30.29 in 10.0 mi South 3.5 mph - N/A   Unknown
10:35 PM 42.8 °F 39.3 °F 32.0 °F 66% 30.29 in 10.0 mi South 5.8 mph - N/A   Unknown
10:55 PM 42.8 °F 39.3 °F 30.2 °F 61% 30.28 in 10.0 mi SSE 5.8 mph - N/A   Unknown
11:15 PM 42.8 °F 38.6 °F 30.2 °F 61% 30.28 in 10.0 mi SSE 6.9 mph - N/A   Unknown
11:35 PM 44.6 °F 40.7 °F 30.2 °F 57% 30.28 in 10.0 mi SSE 6.9 mph - N/A   Unknown
11:55 PM 44.6 °F 40.2 °F 30.2 °F 57% 30.28 in 10.0 mi SSE 8.1 mph - N/A   Unknown